Погода в Вологде

Погода в Вологде : погода сейчас, прогноз погоды и архив. Всё, что Вы хотите узнать о погоде в Вологде!

Хотите узнать прогноз погоды в Вологде? Тогда Вам сюда: Погода в Вологде

Поиск расширенной информации на нашем сайте:

Другие новости

Новости СМИ2

Главная страница сайта

Новости сайта

02.10.2013

Напоминаем, что на нашем новом сайте вы можете получить высокодетализированные прогнозы погоды по пунктам России, СНГ и мира (включающие важные для авиации метеовеличины, такие как направление и скорость ветра, видимость, явления погоды, количество и форма облачности, нижняя и верхняя граница облачности), а также ознакомиться с разнообразными материалами по авиационной метеорологии и подборкой полезных ссылок на эту тему.

Сайт Метеоцентр.Азия посвящён разработке технологий оптимизации авиаметеорологического обслуживания, включая проектирование и перспективное создание нескольких автоматизированных авиаметеорологических систем:
- система выпуска высокодетальных прогностических карт явлений погоды для нижнего воздушного пространства по России и ближнему зарубежью;
- система верификации прогнозов TAF (выпускаемых синоптиками официальных АМСГ РФ и ближнего зарубежья) и AUTOTAF (выпускаемых сайтом Метеоцентр.Азия) - выявление ошибок, онлайн-сопоставление с фактической погодой METAR, автоматическое внесение коррективов в прогнозы при резком отклонении фактической погоды от прогноза, подсчёт оправдываемости прогнозов по элементам и в целом;
- система обработки, анализа и отображения авиаметеорологической информации для применения провайдерами метеорологической информации.

Рекомендуем: эмалировка ванн

Погода в Вологде - сегодня

Время (UTC), дата Ветер
(°,м/с) 
Видим.   Явления Облачность Т
(°С)
Тd
(°С)
f(%) Тe
(°С)
Pmin
(гПа)
dP
(гПа)
Po
(мм)
O2
(г/м3)
Тmin Tmax R s Состояние
почвы
21 24.05.17 040 (СВ) 20000 м    3/0 верхняя 
[Ci fib]
+4.9 +0.5 73 +6  1014.5  0.3  749  296           
00 25.05.17 120 (ЮВ) 20000 м    1/0 верхняя 
[Ci fib]
+7.6 -0.9 55 +8  1014.2  -0.2  749  294           
03 25.05.17 130 (ЮВ) 20000 м    3/0 верхняя 
[Ci]
+10.3 -1.2 45 +10  1013.3  -0.7  748  291  +4.7        сухая 
06 25.05.17 110 (В) 20000 м    6/0 верхняя 
[Ci fib]
+17.4 -0.7 29 +18  1011.6  -1.3  747  283           
09 25.05.17 140 (ЮВ) 5-11{11}  20000 м    10/1 1000 м верхняя 
[Sc|Cs]
+20.3 +3.8 34 +20  1009.3  -2.1  746  279           
12 25.05.17 170 (Ю) 6-10{11}  20000 м    10/9 660 м кучево-дожд., верхняя 
[Cb cap|Ci ing]
+19.6 +5.6 40 +20  1006.1  -3.1  743  279           
15 25.05.17 140 (ЮВ) 3{10}  10 км  слаб. дождь{гроза, ливн. осадки}  10/10 360 м 
[Frnb|Ns]
+13.3 +11.7 90 +17  1005  -1.5  742  283    +21.9     
18 25.05.17 270 (З) 20000 м  в посл. час ливневой дождь{гроза}  10/10 540 м кучево-дожд. 
[Cb cap]
+11.5 +9.3 86 +12  1004.3  -0.7  742  285           
21 25.05.17 230 (ЮЗ) 20000 м  в посл. час ливневой дождь  9/9 600 м кучево-дожд. 
[Cb cap]
+10.5 +8.5 87 +10  1004.7  0.3  742  286           
00 26.05.17 250 (З) 20000 м  {ливн. осадки}  3/3 2000 м средняя 
[Ac trans]
+9.1 +7 87 +9  1005.2  0.4  742  288           
03 26.05.17 240 (ЮЗ) 20000 м    9/9 600 м кучево-дожд. 
[Cb cap]
+10 +7.9 87 +10  1005.8  0.6  743  287  +8.8      влажная 
06 26.05.17 240 (ЮЗ) 20000 м    9/8 600 м кучево-дожд., верхняя 
[Cb cap|Ci fib]
+13.8 +8.2 69 +14  1006.6  1.1  743  284           
09 26.05.17 240 (ЮЗ) 20000 м    9/6 600 м кучево-дожд., средняя, верхняя 
[Cb cap|Ac trans|Ci fib]
+16.5 +7.3 54 +17  1006.7  0.2  744  281           
12 26.05.17 240 (ЮЗ) 4{10}  20000 м  {ливн. осадки}  10/10 600 м кучево-дожд. 
[Cb cap]
+14.5 +8.1 65 +14  1006.6  -0.2  743  283           
15 26.05.17 310 (СЗ) 10 км  слаб. ливневой дождь  10/10 270 м кучево-дожд. 
[Cb cap]
+10.7 +8.2 85 +10  1006.9  743  287    +16.9     
03 27.05.17 360 (С) 20000 м    9/9 930 м 
[Sc]
+7 +4.1 82 +6  1011.8  0.9  747  293  +5.1      влажная 
06 27.05.17 360 (С) 20000 м  {ливн. осадки}  9/9 600 м кучево-дожд. 
[Cb cap]
+7.8 +3.4 74 +7  1013.7  1.8  748  293           
18 27.05.17 010 (С) 2{11}  20000 м    6/4 1000 м средняя 
[Sc|Ac trans]
+4.5 -3.3 57 +4  1016.6  0.5  750  298           
21 27.05.17 030 (СВ) 20000 м    8/8 2000 м средняя 
[Ac trans]
+0.8 -2.1 81 +1  1016.9  0.1  750  302           
00 28.05.17 тихо ()   20000 м    9/6 1000 м средняя 
[Sc|Ac trans]
+0.3 -1.4 88 1017  750  302           
03 28.05.17 060 (СВ) 20000 м  слаб. ливневой дождь со снегом  9/9 660 м кучево-дожд. 
[Cb cap]
+2.2 -0.3 84 +2  1017.4  0.6  751  300  +0.3    0.0    влажная 
09 28.05.17 020 (С) 5{12}  20000 м  {ливн. осадки}  8/8 600 м кучево-дожд. 
[Cb cap]
+7.5 -2.5 49 +6  1017.6  0.7  751  295           
18 28.05.17 160 (Ю) 20000 м    10/4 2000 м средняя, верхняя 
[Ac trans|Ci fib]
+6.9 -4.6 44 +8  1014.8  -1.5  749  295           
21 28.05.17 230 (ЮЗ) 20000 м    10/10 1080 м 
[Sc]
+6.5 -2.2 54 +6  1013.8  -1  748  295           
03 29.05.17 130 (ЮВ) 4{10}  10 км  слаб. дождь  10/8 300 м средняя 
[Frnb|As op]
+1.7 +0.6 92 1004.9  -5  742  297  +1.6      влажная 
Время (UTC), дата Ветер
(°,м/с) 
Видим.   Явления Облачность Т
(°С)
Тd
(°С)
f(%) Тe
(°С)
Pmin
(гПа)
dP
(гПа)
Po
(мм)
O2
(г/м3)
Тmin Tmax R s Состояние
почвы

Для получения пояснительной информации подведите курсор к названию столбца.

ПОГОДА в Вологде - архив

Всё, что Вы хотите узнать о погоде в Вологде - удобно и подробно!

Выберите нужную дату (начиная с 1 января 2015* года) и нажмите кнопку "Найти".
Будут отображены архивные сводки погоды по пункту Вологда, начиная с указанной даты.


Отображать данные в формате CSV (для использования в таблицах Excel)


Внимание! Наш архив погоды предназначен исключительно для личного некоммерческого использования в познавательных целях. Если Вам необходимы официальные справки о состоянии погоды (для производственных, юридических, коммерческих и т.п. целей), обращайтесь в органы Росгидромета.

*Примечание: данная дата относится к архиву по метеостанциям СССР (Россия, СНГ, Балтия).
Архив по метеостанциям Зарубежной Европы и Азии (кроме Китая) хранится 10 дней, по другим регионам земного шара (Китай, Африка, Америка, Австралия, Океания) - 1 день.

Вологда - район местоположения метеостанции


Название, широта, долгота, высота метеостанции:
Вологда (город) 59.3°ш. 39.9°д. 130 м над ур. моря [Российская Федерация]

Дополнительная информация

В oтличие oт бoльшинства пoгoдных сайтoв мы публикуем пoдрoбную метеoинфoрмацию в детальнoм прoфессиoнальнoм фoрмате.

Характеристики температуры и влажнoсти вoздуха измеряются на высoте 2 м в тени вдали oт зданий и деревьев.
Скoрoсть ветра измеряется на высoте 10 м (на урoвне рoста челoвека скoрoсть ветра ниже в 1.5-2 раза). Если метеoстанция нахoдится в гoрoде или в лесу, тo скoрoсть ветра занижена на 2-4 м/с пo сравнению с oткрытым местoм. Скoрoсть ветра над акватoриями крупных рек и oзёр, а также на вершинах хoлмoв на 2-5 м/с выше, чем в oбычных услoвиях.
Атмoсфернoе давление в разных тoчках местнoсти мoжет значительнo oтличаться oт давления на метеoстанции, в зависимoсти oт услoвий рельефа (при пoдъёме на 10 м давление пoнижается примернo на 1 мм рт.ст.).